Retour au catalogue

STARLINK-34577

ActifCommunicationsVLEO
NORAD 64719·PAYLOAD·🇺🇸 United States

Lancé Jun 28, 2025 depuis Vandenberg Space Force Base

Loading…

Prochains Passages (prochaines 24 heures)

TLE

FraisSource: CelesTrak SupGP

Époque: Sep 14, 2026, 22:51 UTC

1 64719C 25142Z   26257.95256944 -.00029591  00000+0 -10291-2 0  2576
2 64719  70.0013 195.4514 0003494 271.7061 136.7570 15.29601393    12

Suivez STARLINK-34577 en temps réel avec AllMySat

Download on the App Store